H1 CPF 2 NER 2025 12 14 9 348 01 glonass138 H2 1805301 9138 43508 2025 12 14 0 0 0 2025 12 17 23 45 0 900 1 1 0 0 0 1 H9 10 0 61023 0.00000 0 -22353795.461 -4156062.717 -11522575.037 10 0 61023 900.00000 0 -20753481.203 -4126265.631 -14212724.674 10 0 61023 1800.00000 0 -18845061.753 -4264399.667 -16626210.749 10 0 61023 2700.00000 0 -16681927.869 -4605365.729 -18716084.464 10 0 61023 3600.00000 0 -14325234.678 -5173460.510 -20441719.143 10 0 61023 4500.00000 0 -11841489.911 -5981147.467 -21769600.865 10 0 61023 5400.00000 0 -9299933.768 -7028339.044 -22673977.753 10 0 61023 6300.00000 0 -6769820.195 -8302220.910 -23137355.711 10 0 61023 7200.00000 0 -4317713.194 -9777625.820 -23150831.559 10 0 61023 8100.00000 0 -2004910.616 -11417941.559 -22714257.832 10 0 61023 9000.00000 0 114897.800 -13176514.938 -21836236.768 10 0 61023 9900.00000 0 1997641.557 -14998492.981 -20533944.296 10 0 61023 10800.00000 0 3610467.282 -16823024.221 -18832788.037 10 0 61023 11700.00000 0 4932858.399 -18585728.007 -16765906.389 10 0 61023 12600.00000 0 5957231.746 -20221328.554 -14373518.780 10 0 61023 13500.00000 0 6688988.238 -21666343.652 -11702139.919 10 0 61023 14400.00000 0 7146017.466 -22861715.715 -8803673.395 10 0 61023 15300.00000 0 7357678.948 -23755275.264 -5734402.351 10 0 61023 16200.00000 0 7363304.519 -24303933.970 -2553896.850 10 0 61023 17100.00000 0 7210286.331 -24475515.742 676140.849 10 0 61023 18000.00000 0 6951832.081 -24250149.461 3893070.671 10 0 61023 18900.00000 0 6644482.898 -23621165.249 7034525.638 10 0 61023 19800.00000 0 6345499.073 -22595457.164 10039616.066 10 0 61023 20700.00000 0 6110224.065 -21193297.087 12850103.876 10 0 61023 21600.00000 0 5989537.957 -19447607.426 15411524.607 10 0 61023 22500.00000 0 6027507.677 -17402722.960 17674236.028 10 0 61023 23400.00000 0 6259332.828 -15112692.918 19594373.614 10 0 61023 24300.00000 0 6709673.636 -12639193.429 21134695.134 10 0 61023 25200.00000 0 7391431.509 -10049136.313 22265298.699 10 0 61023 26100.00000 0 8305033.968 -7412072.602 22964200.931 10 0 61023 27000.00000 0 9438254.807 -4797497.488 23217764.508 10 0 61023 27900.00000 0 10766578.219 -2272167.439 23020966.975 10 0 61023 28800.00000 0 12254093.112 102460.242 22377505.429 10 0 61023 29700.00000 0 13854881.822 2272560.090 21299734.605 10 0 61023 30600.00000 0 15514846.829 4193947.285 19808438.723 10 0 61023 31500.00000 0 17173900.592 5833679.611 17932440.510 10 0 61023 32400.00000 0 18768428.154 7171186.231 15708053.794 10 0 61023 33300.00000 0 20233920.334 8198876.409 13178389.053 10 0 61023 34200.00000 0 21507667.502 8922202.854 10392524.365 10 0 61023 35100.00000 0 22531400.890 9359177.134 7404556.976 10 0 61023 36000.00000 0 23253769.924 9539357.730 4272553.416 10 0 61023 36900.00000 0 23632550.422 9502353.650 1057418.499 10 0 61023 37800.00000 0 23636489.535 9295907.289 -2178294.503 10 0 61023 38700.00000 0 23246708.321 8973638.321 -5371608.696 10 0 61023 39600.00000 0 22457601.509 8592545.065 -8460358.577 10 0 61023 40500.00000 0 21277195.364 8210370.304 -11384410.053 10 0 61023 41400.00000 0 19726947.573 7882944.442 -14086840.582 10 0 61023 42300.00000 0 17840996.986 7661619.806 -16515055.352 10 0 61023 43200.00000 0 15664894.382 7590905.964 -18621816.965 10 0 61023 44100.00000 0 13253867.498 7706407.151 -20366168.006 10 0 61023 45000.00000 0 10670693.217 8033149.803 -21714228.342 10 0 61023 45900.00000 0 7983266.198 8584371.389 -22639851.740 10 0 61023 46800.00000 0 5261965.749 9360821.925 -23125129.433 10 0 61023 47700.00000 0 2576930.922 10350607.716 -23160731.438 10 0 61023 48600.00000 0 -4642.752 11529583.789 -22746079.702 10 0 61023 49500.00000 0 -2421072.826 12862278.421 -21889350.479 10 0 61023 50400.00000 0 -4618519.569 14303310.687 -20607306.555 10 0 61023 51300.00000 0 -6552979.900 15799241.360 -18924963.218 10 0 61023 52200.00000 0 -8191864.052 17290779.367 -16875094.894 10 0 61023 53100.00000 0 -9515090.967 18715251.171 -14497592.379 10 0 61023 54000.00000 0 -10515658.645 20009229.489 -11838683.354 10 0 61023 54900.00000 0 -11199667.593 21111211.169 -8950031.459 10 0 61023 55800.00000 0 -11585798.372 21964231.979 -5887731.492 10 0 61023 56700.00000 0 -11704267.001 22518308.749 -2711220.298 10 0 61023 57600.00000 0 -11595303.708 22732606.592 517875.516 10 0 61023 58500.00000 0 -11307220.366 22577240.415 3736932.624 10 0 61023 59400.00000 0 -10894148.984 22034635.292 6883541.720 10 0 61023 60300.00000 0 -10413547.232 21100388.770 9896712.621 10 0 61023 61200.00000 0 -9923576.459 19783598.874 12718050.578 10 0 61023 62100.00000 0 -9480462.795 18106643.978 15292881.402 10 0 61023 63000.00000 0 -9135952.390 16104423.134 17571304.094 10 0 61023 63900.00000 0 -8934967.735 13823088.096 19509151.240 10 0 61023 64800.00000 0 -8913563.503 11318319.196 21068839.352 10 0 61023 65700.00000 0 -9097267.706 8653215.609 22220093.332 10 0 61023 66600.00000 0 -9499877.963 5895886.627 22940531.672 10 0 61023 67500.00000 0 -10122763.798 3116842.669 23216101.492 10 0 61023 68400.00000 0 -10954704.976 386292.918 23041355.170 10 0 61023 69300.00000 0 -11972273.674 -2228539.515 22419563.089 10 0 61023 70200.00000 0 -13140745.759 -4665974.678 21362659.837 10 0 61023 71100.00000 0 -14415504.453 -6872199.957 19891024.138 10 0 61023 72000.00000 0 -15743878.971 -8803265.415 18033095.738 10 0 61023 72900.00000 0 -17067342.372 -10426667.814 15824835.517 10 0 61023 73800.00000 0 -18323977.435 -11722457.537 13309038.063 10 0 61023 74700.00000 0 -19451107.604 -12683822.286 10534508.974 10 0 61023 75600.00000 0 -20387982.579 -13317123.193 7555122.004 10 0 61023 76500.00000 0 -21078405.198 -13641381.903 4428773.797 10 0 61023 77400.00000 0 -21473188.153 -13687240.378 1216256.454 10 0 61023 78300.00000 0 -21532335.844 -13495437.647 -2019929.876 10 0 61023 79200.00000 0 -21226857.918 -13114868.383 -5216800.654 10 0 61023 80100.00000 0 -20540136.509 -12600306.209 -8312122.013 10 0 61023 81000.00000 0 -19468788.058 -12009889.097 -11245632.117 10 0 61023 81900.00000 0 -18022982.088 -11402474.465 -13960223.848 10 0 61023 82800.00000 0 -16226202.511 -10834977.153 -16403064.692 10 0 61023 83700.00000 0 -14114460.792 -10359804.100 -18526631.190 10 0 61023 84600.00000 0 -11734993.594 -10022495.219 -20289637.265 10 0 61023 85500.00000 0 -9144499.379 -9859670.938 -21657838.073 10 0 61024 0.00000 0 -6406988.013 -9897373.511 -22604693.828 10 0 61024 900.00000 0 -3591331.843 -10149872.339 -23111881.474 10 0 61024 1800.00000 0 -768624.104 -10618983.444 -23169643.682 10 0 61024 2700.00000 0 1990550.222 -11293931.514 -22776970.786 10 0 61024 3600.00000 0 4618814.236 -12151759.914 -21941611.507 10 0 61024 4500.00000 0 7054559.340 -13158270.887 -20679913.520 10 0 61024 5400.00000 0 9244260.038 -14269455.955 -19016497.474 10 0 61024 6300.00000 0 11144448.221 -15433355.979 -16983771.237 10 0 61024 7200.00000 0 12723266.210 -16592272.373 -14621294.158 10 0 61024 8100.00000 0 13961535.509 -17685236.327 -11975003.915 10 0 61024 9000.00000 0 14853298.521 -18650632.131 -9096321.079 10 0 61024 9900.00000 0 15405812.460 -19428864.284 -6041148.901 10 0 61024 10800.00000 0 15638997.548 -19964956.299 -2868787.780 10 0 61024 11700.00000 0 15584364.365 -20210972.031 359214.510 10 0 61024 12600.00000 0 15283466.821 -20128157.762 3580254.446 10 0 61024 13500.00000 0 14785947.046 -19688715.165 6731883.229 10 0 61024 14400.00000 0 14147255.292 -18877130.641 9753012.750 10 0 61024 15300.00000 0 13426141.316 -17691005.096 12585093.860 10 0 61024 16200.00000 0 12682023.067 -16141349.102 15173244.516 10 0 61024 17100.00000 0 11972343.305 -14252330.481 17467306.421 10 0 61024 18000.00000 0 11350025.173 -12060484.275 19422810.378 10 0 61024 18900.00000 0 10861133.293 -9613417.046 21001832.331 10 0 61024 19800.00000 0 10542838.309 -6968058.333 22173724.291 10 0 61024 20700.00000 0 10421770.081 -4188530.690 22915706.568 10 0 61024 21600.00000 0 10512828.576 -1343725.251 23213310.321 10 0 61024 22500.00000 0 10818502.593 1495318.041 23060662.047 10 0 61024 23400.00000 0 11328725.411 4258118.282 22460604.404 10 0 61024 24300.00000 0 12021274.248 6877438.559 21424650.577 10 0 61024 25200.00000 0 12862697.854 9291837.721 19972772.309 10 0 61024 26100.00000 0 13809734.482 11447983.824 18133024.690 10 0 61024 27000.00000 0 14811161.883 13302633.613 15941013.802 10 0 61024 27900.00000 0 15810002.603 14824195.936 13439216.330 10 0 61024 28800.00000 0 16745992.541 15993813.890 10676163.234 10 0 61024 29700.00000 0 17558209.139 16805920.432 7705502.467 10 0 61024 30600.00000 0 18187748.325 17268244.097 4584958.359 10 0 61024 31500.00000 0 18580336.623 17401264.568 1375207.780 10 0 61024 32400.00000 0 18688767.197 17237141.193 -1861304.810 10 0 61024 33300.00000 0 18475055.557 16818159.984 -5061589.746 10 0 61024 34200.00000 0 17912222.368 16194765.319 -8163347.240 10 0 61024 35100.00000 0 16985626.478 15423260.368 -11106189.971 10 0 61024 36000.00000 0 15693790.393 14563274.512 -13832828.277 10 0 61024 36900.00000 0 14048682.104 13675105.993 -16290193.719 10 0 61024 37800.00000 0 12075440.337 12817053.257 -18430478.305 10 0 61024 38700.00000 0 9811554.010 12042848.710 -20212068.564 10 0 61024 39600.00000 0 7305529.855 11399304.046 -21600356.005 10 0 61024 40500.00000 0 4615103.770 10924266.912 -22568408.277 10 0 61024 41400.00000 0 1805070.517 10644975.182 -23097488.352 10 0 61024 42300.00000 0 -1055177.653 10576877.945 -23177412.196 10 0 61024 43200.00000 0 -3894301.029 10722972.343 -22806738.688 10 0 61024 44100.00000 0 -6641741.038 11073683.467 -21992788.848 10 0 61024 45000.00000 0 -9230414.341 11607291.539 -20751494.698 10 0 61024 45900.00000 0 -11599261.090 12290887.569 -19107081.310 10 0 61024 46800.00000 0 -13695542.334 13081816.515 -17091588.672 10 0 61024 47700.00000 0 -15476792.145 13929546.539 -14744243.031 10 0 61024 48600.00000 0 -16912344.590 14777885.176 -12110690.121 10 0 61024 49500.00000 0 -17984373.488 15567448.753 -9242105.304 10 0 61024 50400.00000 0 -18688403.193 16238280.823 -6194198.009 10 0 61024 51300.00000 0 -19033270.753 16732509.241 -3026129.823 10 0 61024 52200.00000 0 -19040542.671 16996929.900 200632.713 10 0 61024 53100.00000 0 -18743412.215 16985408.342 3423508.325 10 0 61024 54000.00000 0 -18185124.878 16660998.167 6580011.198 10 0 61024 54900.00000 0 -17416999.024 15997686.989 9608957.775 10 0 61024 55800.00000 0 -16496125.698 14981696.521 12451646.993 10 0 61024 56700.00000 0 -15482844.510 13612281.750 15052991.408 10 0 61024 57600.00000 0 -14438101.714 11901995.194 17362577.825 10 0 61024 58500.00000 0 -13420801.323 9876404.474 19335637.509 10 0 61024 59400.00000 0 -12485260.012 7573273.981 20933907.918 10 0 61024 60300.00000 0 -11678872.100 5041243.507 22126370.027 10 0 61024 61200.00000 0 -11040082.013 2338057.387 22889847.519 10 0 61024 62100.00000 0 -10596748.821 -471583.818 23209456.808 10 0 61024 63000.00000 0 -10364971.197 -3318461.576 23078899.335 10 0 61024 63900.00000 0 -10348422.069 -6131467.966 22500590.442 10 0 61024 64800.00000 0 -10538221.233 -8840317.084 21485621.856 10 0 61024 65700.00000 0 -10913351.834 -11378228.021 20053557.814 10 0 61024 66600.00000 0 -11441604.060 -13684468.992 18232067.730 10 0 61024 67500.00000 0 -12081007.302 -15706657.526 16056401.403 10 0 61024 68400.00000 0 -12781691.414 -17402721.331 13568715.677 10 0 61024 69300.00000 0 -13488099.417 -18742438.070 10817264.552 10 0 61024 70200.00000 0 -14141458.758 -19708489.605 7855467.527 10 0 61024 71100.00000 0 -14682406.875 -20296986.301 4740873.699 10 0 61024 72000.00000 0 -15053659.724 -20517439.165 1534041.599 10 0 61024 72900.00000 0 -15202609.644 -20392180.895 -1702643.240 10 0 61024 73800.00000 0 -15083741.452 -19955260.309 -4906189.369 10 0 61024 74700.00000 0 -14660763.136 -19250857.145 -8014234.436 10 0 61024 75600.00000 0 -13908359.410 -18331284.770 -10966268.998 10 0 61024 76500.00000 0 -12813492.431 -17254665.984 -13704824.122 10 0 61024 77400.00000 0 -11376193.250 -16082381.104 -16176598.554 10 0 61024 78300.00000 0 -9609809.354 -14876397.136 -18333502.612 10 0 61024 79200.00000 0 -7540696.817 -13696591.699 -20133597.904 10 0 61024 80100.00000 0 -5207369.263 -12598185.361 -21541914.280 10 0 61024 81000.00000 0 -2659138.781 -11629391.051 -22531128.190 10 0 61024 81900.00000 0 45694.647 -10829379.634 -23082089.627 10 0 61024 82800.00000 0 2842029.789 -10226647.000 -23184187.957 10 0 61024 83700.00000 0 5660435.836 -9837850.728 -22835550.223 10 0 61024 84600.00000 0 8429806.413 -9667164.331 -22043068.835 10 0 61024 85500.00000 0 11080085.768 -9706175.139 -20822258.785 10 0 61025 0.00000 0 13544954.054 -9934328.892 -19196947.937 10 0 61025 900.00000 0 15764362.010 -10319901.348 -17198805.942 10 0 61025 1800.00000 0 17686807.199 -10821454.567 -14866723.555 10 0 61025 2700.00000 0 19271262.558 -11389716.078 -12246051.721 10 0 61025 3600.00000 0 20488674.831 -11969800.763 -9387717.449 10 0 61025 4500.00000 0 21322973.090 -12503681.360 -6347232.937 10 0 61025 5400.00000 0 21771546.493 -12932803.077 -3183617.388 10 0 61025 6300.00000 0 21845172.763 -13200731.829 41747.568 10 0 61025 7200.00000 0 21567401.764 -13255724.338 3266306.538 10 0 61025 8100.00000 0 20973421.226 -13053111.638 6427540.131 10 0 61025 9000.00000 0 20108453.362 -12557395.578 9464172.508 10 0 61025 9900.00000 0 19025750.263 -11743969.893 12317353.476 10 0 61025 10800.00000 0 17784272.621 -10600393.092 14931792.516 10 0 61025 11700.00000 0 16446149.400 -9127159.390 17256823.385 10 0 61025 12600.00000 0 15074024.752 -7337934.487 19247379.193 10 0 61025 13500.00000 0 13728403.039 -5259245.459 20864859.816 10 0 61025 14400.00000 0 12465102.607 -2929636.420 22077875.637 10 0 61025 15300.00000 0 11332924.219 -398323.666 22862853.751 10 0 61025 16200.00000 0 10371631.101 2276595.435 23204495.465 10 0 61025 17100.00000 0 9610324.559 5030307.100 23096076.439 10 0 61025 18000.00000 0 9066282.835 7793731.199 22539583.617 10 0 61025 18900.00000 0 8744311.673 10496156.701 21545685.880 10 0 61025 19800.00000 0 8636633.953 13067954.537 20133538.278 10 0 61025 20700.00000 0 8723323.401 15443256.329 18330422.621 10 0 61025 21600.00000 0 8973264.712 17562488.429 16171230.272 10 0 61025 22500.00000 0 9345600.313 19374656.199 13697795.901 10 0 61025 23400.00000 0 9791603.392 20839283.308 10958094.037 10 0 61025 24300.00000 0 10256898.596 21927924.860 8005313.078 10 0 61025 25200.00000 0 10683936.694 22625190.599 4896824.135 10 0 61025 26100.00000 0 11014618.315 22929234.831 1693064.574 10 0 61025 27000.00000 0 11192955.068 22851692.084 -1543641.826 10 0 61025 27900.00000 0 11167654.340 22417061.006 -4750304.585 10 0 61025 28800.00000 0 10894516.963 21661562.496 -7864501.399 10 0 61025 29700.00000 0 10338544.713 20631520.515 -10825603.077 10 0 61025 30600.00000 0 9475666.817 19381334.483 -13575963.525 10 0 61025 31500.00000 0 8294010.900 17971129.608 -16062050.471 10 0 61025 32400.00000 0 6794663.302 16464185.147 -18235494.035 10 0 61025 33300.00000 0 4991885.429 14924249.911 -20054032.102 10 0 61025 34200.00000 0 2912776.120 13412858.861 -21482333.796 10 0 61025 35100.00000 0 596393.428 11986764.244 -22492685.051 10 0 61025 36000.00000 0 -1907627.872 10695589.433 -23065523.319 10 0 61025 36900.00000 0 -4540905.571 9579803.843 -23189811.518 10 0 61025 37800.00000 0 -7238509.955 8669103.344 -22863244.707 10 0 61025 38700.00000 0 -9931442.912 7981263.156 -22092286.173 10 0 61025 39600.00000 0 -12549293.167 7521510.141 -20892032.962 10 0 61025 40500.00000 0 -15022957.486 7282439.391 -19285914.094 10 0 61025 41400.00000 0 -17287315.133 7244477.106 -17305227.780 10 0 61025 42300.00000 0 -19283744.853 7376868.854 -14988527.018 10 0 61025 43200.00000 0 -20962380.417 7639150.268 -12380865.723 10 0 61025 44100.00000 0 -22284011.701 7983037.136 -9532920.158 10 0 61025 45000.00000 0 -23221553.037 8354654.295 -6500002.838 10 0 61025 45900.00000 0 -23761018.756 8697008.672 -3340988.098 10 0 61025 46800.00000 0 -23901966.314 8952601.653 -117170.215 10 0 61025 47700.00000 0 -23657389.667 9066070.255 3108923.722 10 0 61025 48600.00000 0 -23053068.457 8986745.475 6274743.157 10 0 61025 49500.00000 0 -22126401.281 8671019.808 9318922.352 10 0 61025 50400.00000 0 -20924772.613 8084424.030 12182464.293 10 0 61025 51300.00000 0 -19503522.359 7203325.598 14809877.667 10 0 61025 52200.00000 0 -17923603.175 6016176.831 17150245.346 10 0 61025 53100.00000 0 -16249023.575 4524259.871 19158204.256 10 0 61025 54000.00000 0 -14544183.580 2741896.414 20794818.457 10 0 61025 54900.00000 0 -12871213.571 696112.192 22028329.210 10 0 61025 55800.00000 0 -11287426.905 -1574231.186 22834768.159 10 0 61025 56700.00000 0 -9842991.880 -4019802.463 23198422.291 10 0 61025 57600.00000 0 -8578919.477 -6582610.099 23112141.904 10 0 61025 58500.00000 0 -7525450.310 -9198181.279 22577485.600 10 0 61025 59400.00000 0 -6700907.704 -11798021.867 21604699.094 10 0 61025 60300.00000 0 -6111064.636 -14312256.686 20212527.563 10 0 61025 61200.00000 0 -5749051.015 -16672341.659 18427864.172 10 0 61025 62100.00000 0 -5595805.380 -18813735.954 16285240.451 10 0 61025 63000.00000 0 -5621052.337 -20678423.385 13826167.167 10 0 61025 63900.00000 0 -5784764.950 -22217177.987 11098337.356 10 0 61025 64800.00000 0 -6039050.689 -23391478.891 8154706.030 10 0 61025 65700.00000 0 -6330381.382 -24174993.858 5052463.829 10 0 61025 66600.00000 0 -6602072.667 -24554568.570 1851924.303 10 0 61025 67500.00000 0 -6796907.442 -24530679.506 -1384653.303 10 0 61025 68400.00000 0 -6859791.289 -24117330.766 -4594282.355 10 0 61025 69300.00000 0 -6740326.125 -23341398.861 -7714483.556 10 0 61025 70200.00000 0 -6395191.582 -22241453.042 -10684510.974 10 0 61025 71100.00000 0 -5790231.689 -20866101.112 -13446544.356 10 0 61025 72000.00000 0 -4902156.953 -19271931.006 -15946823.346 10 0 61025 72900.00000 0 -3719788.403 -17521135.561 -18136700.627 10 0 61025 73800.00000 0 -2244789.752 -15678921.249 -19973592.865 10 0 61025 74700.00000 0 -491855.761 -13810810.661 -21421810.584 10 0 61025 75600.00000 0 1511652.011 -11979952.595 -22453250.884 10 0 61025 76500.00000 0 3726607.398 -10244552.961 -23047939.830 10 0 61025 77400.00000 0 6103522.423 -8655534.131 -23194414.541 10 0 61025 78300.00000 0 8584392.325 -7254520.305 -22889938.199 10 0 61025 79200.00000 0 11104906.053 -6072232.363 -22140544.591 10 0 61025 80100.00000 0 13596930.178 -5127358.172 -20960911.996 10 0 61025 81000.00000 0 15991163.004 -4425944.129 -19374069.494 10 0 61025 81900.00000 0 18219848.592 -3961331.724 -17410941.897 10 0 61025 82800.00000 0 20219438.074 -3714640.037 -15109742.503 10 0 61025 83700.00000 0 21933087.863 -3655772.187 -12515225.716 10 0 61025 84600.00000 0 23312891.314 -3744901.878 -9677814.170 10 0 61025 85500.00000 0 24321751.447 -3934376.104 -6652617.458 10 0 61026 0.00000 0 24934817.384 -4170952.781 -3498361.819 10 0 61026 900.00000 0 25140425.664 -4398278.235 -276249.896 10 0 61026 1800.00000 0 24940507.194 -4559499.140 2951222.975 10 0 61026 2700.00000 0 24350444.919 -4599898.739 6121478.717 10 0 61026 3600.00000 0 23398388.001 -4469445.614 9173065.099 10 0 61026 4500.00000 0 22124052.239 -4125147.447 12046841.394 10 0 61026 5400.00000 0 20577057.329 -3533110.478 14687118.167 10 0 61026 6300.00000 0 18814870.592 -2670217.616 17042729.612 10 0 61026 7200.00000 0 16900443.157 -1525354.313 19068018.239 10 0 61026 8100.00000 0 14899636.965 -100130.031 20723713.580 10 0 61026 9000.00000 0 12878549.422 1590935.865 21977688.632 10 0 61026 9900.00000 0 10900846.550 3520772.803 22805580.035 10 0 61026 10800.00000 0 9025214.870 5650648.893 23191260.485 10 0 61026 11700.00000 0 7303037.336 7931556.653 23127154.547 10 0 61026 12600.00000 0 5776389.365 10306038.703 22614391.702 10 0 61026 13500.00000 0 4476437.782 12710379.288 21662793.333 10 0 61026 14400.00000 0 3422308.956 15077072.223 20290693.199 10 0 61026 15300.00000 0 2620473.118 17337463.960 18524593.933 10 0 61026 16200.00000 0 2064670.468 19424462.858 16398665.044 10 0 61026 17100.00000 0 1736382.212 21275202.400 13954090.946 10 0 61026 18000.00000 0 1605826.838 22833547.419 11238280.512 10 0 61026 18900.00000 0 1633439.773 24052338.355 8303952.537 10 0 61026 19800.00000 0 1771774.024 24895279.028 5208114.206 10 0 61026 20700.00000 0 1967741.244 25338387.961 2010952.201 10 0 61026 21600.00000 0 2165097.925 25370951.383 -1225341.844 10 0 61026 22500.00000 0 2307070.623 24995936.976 -4437788.165 10 0 61026 23400.00000 0 2339007.844 24229850.245 -7563853.348 10 0 61026 24300.00000 0 2210944.868 23102039.136 -10542677.382 10 0 61026 25200.00000 0 1879971.324 21653476.038 -13316268.231 10 0 61026 26100.00000 0 1312299.718 19935068.664 -15830639.502 10 0 61026 27000.00000 0 484945.897 18005571.348 -18036868.163 10 0 61026 27900.00000 0 -613050.874 15929185.188 -19892051.039 10 0 61026 28800.00000 0 -1979920.857 13772948.518 -21360141.126 10 0 61026 29700.00000 0 -3601000.463 11604027.776 -22412647.440 10 0 61026 30600.00000 0 -5449120.145 9487022.622 -23029185.132 10 0 61026 31500.00000 0 -7485527.700 7481398.208 -23197865.634 10 0 61026 32400.00000 0 -9661308.670 5639151.630 -22915520.023 10 0 61026 33300.00000 0 -11919244.612 4002809.320 -22187751.948 10 0 61026 34200.00000 0 -14196031.749 2603837.961 -21028819.848 10 0 61026 35100.00000 0 -16424767.538 1461533.815 -19461351.362 10 0 61026 36000.00000 0 -18537601.618 582435.149 -17515895.997 10 0 61026 36900.00000 0 -20468440.743 -39719.521 -15230325.106 10 0 61026 37800.00000 0 -22155595.222 -423487.577 -12649091.075 10 0 61026 38700.00000 0 -23544256.810 -598695.847 -9822360.250 10 0 61026 39600.00000 0 -24588705.057 -604936.341 -6805036.550 10 0 61026 40500.00000 0 -25254150.541 -489648.958 -3655694.774 10 0 61026 41400.00000 0 -25518138.478 -305873.047 -435444.339 10 0 61026 42300.00000 0 -25371454.729 -109763.535 2793254.440 10 0 61026 43200.00000 0 -24818496.919 42023.034 5967798.612 10 0 61026 44100.00000 0 -23877095.645 94961.875 9026652.029 10 0 61026 45000.00000 0 -22577793.897 -798.529 11910532.720 10 0 61026 45900.00000 0 -20962614.954 -288094.061 14563555.462 10 0 61026 46800.00000 0 -19083370.336 -800700.540 16934307.905 10 0 61026 47700.00000 0 -16999578.480 -1561673.527 18976840.003 10 0 61026 48600.00000 0 -14776080.505 -2582142.502 20651548.306 10 0 61026 49500.00000 0 -12480451.869 -3860610.707 21925938.729 10 0 61026 50400.00000 0 -10180316.899 -5382790.951 22775253.677 10 0 61026 51300.00000 0 -7940676.987 -7121985.563 23182951.933 10 0 61026 52200.00000 0 -5821362.599 -9039996.170 23141032.304 10 0 61026 53100.00000 0 -3874714.130 -11088527.104 22650194.780 10 0 61026 54000.00000 0 -2143587.193 -13211025.727 21719835.709 10 0 61026 54900.00000 0 -659764.688 -15344884.783 20367876.442 10 0 61026 55800.00000 0 557158.679 -17423916.522 18620427.803 10 0 61026 56700.00000 0 1500373.213 -19380996.696 16511295.744 10 0 61026 57600.00000 0 2175907.569 -21150768.933 14081336.533 10 0 61026 58500.00000 0 2602136.473 -22672296.842 11377672.852 10 0 61026 59400.00000 0 2808763.535 -23891552.796 8452785.028 10 0 61026 60300.00000 0 2835322.094 -24763638.582 5363494.374 10 0 61026 61200.00000 0 2729257.606 -25254643.878 2169858.150 10 0 61026 62100.00000 0 2543673.070 -25343063.389 -1066002.273 10 0 61026 63000.00000 0 2334833.659 -25020711.925 -4281116.706 10 0 61026 63900.00000 0 2159537.255 -24293097.844 -7412900.366 10 0 61026 64800.00000 0 2072463.550 -23179238.310 -10400381.910 10 0 61026 65700.00000 0 2123615.466 -21710923.593 -13185400.244 10 0 61026 66600.00000 0 2355962.750 -19931461.188 -15713745.582 10 0 61026 67500.00000 0 2803388.909 -17893952.682 -17936221.665 10 0 61026 68400.00000 0 3489029.637 -15659176.097 -19809607.734 10 0 61026 69300.00000 0 4424073.962 -13293163.107 -21297501.190 10 0 61026 70200.00000 0 5607079.597 -10864573.160 -22371024.515 10 0 61026 71100.00000 0 7023831.907 -8441974.767 -23009383.029 10 0 61026 72000.00000 0 8647752.894 -6091147.778 -23200263.119 10 0 61026 72900.00000 0 10440843.245 -3872519.111 -22940063.920 10 0 61026 73800.00000 0 12355118.141 -1838838.330 -22233958.675 10 0 61026 74700.00000 0 14334476.749 -33189.119 -21095785.301 10 0 61026 75600.00000 0 16316927.250 1512581.780 -19547768.934 10 0 61026 76500.00000 0 18237074.448 2778954.256 -17620082.335 10 0 61026 77400.00000 0 20028766.074 3759299.484 -15350253.090 10 0 61026 78300.00000 0 21627787.340 4459897.962 -12782429.368 10 0 61026 79200.00000 0 22974491.327 4899412.198 -9966518.645 10 0 61026 80100.00000 0 24016255.482 5107838.073 -6957216.242 10 0 61026 81000.00000 0 24709661.819 5124980.675 -3812942.592 10 0 61026 81900.00000 0 25022309.969 4998520.172 -594709.900 10 0 61026 82800.00000 0 24934187.578 4781750.371 2635059.763 10 0 61026 83700.00000 0 24438541.058 4531086.097 5813742.020 10 0 61026 84600.00000 0 23542210.699 4303445.112 8879720.101 10 0 61026 85500.00000 0 22265416.303 4153615.262 11773573.826 99